Flag for Netherlands Weather past 2 weeks in Eindhoven, Netherlands

Now
55 °F

Fog.


Feels Like: 54 °F
Forecast: 51 / 58 °F
Wind: 6 mph from Southwest

Location: Eindhoven Airport

Current Time: Sep 5, 2015 at 6:06:50 AM

Latest Report: Sep 5, 2015 at 5:25 AM


Visibility: 4 mi

Pressure: 29.95 "Hg

Humidity: 94%

Dew point: 54 °F

Location of EindhovenLocation

Historic Weather in Eindhoven — Graph

°F

Eindhoven temperature yesterday

Maximum temperature yesterday: 63 °F (at 2:55 PM)
Minimum temperature yesterday: 46 °F (at 4:55 AM)
Average temperature yesterday: 55 °F

Past Weeks' High & Low Weather Summary

 TemperatureHumidityPressure
High86 °F (Aug 31, 3:25 PM)100% (Aug 21, 4:01 AM)30.21 "Hg (Aug 21, 4:01 AM)
Low46 °F (Sep 2, 4:25 AM)34% (Aug 22, 2:55 PM)29.47 "Hg (Aug 24, 2:55 PM)
Average64 °F78%29.91 "Hg
* Reported Aug 21 4:01 AM — Sep 5 4:55 AM, Eindhoven, Weather by CustomWeather, © 2015

Note: Actual official high and low records may vary slightly from our data, if they occured in-between our weather recording intervals... More about our weather records

Advertising

Eindhoven weather history for previous 24 hours

 ConditionsComfort  
Time TempWeatherWind HumidityBarometerVisibility
4:55 AM
Sat, Sep 5
55 °FPartly cloudy.5 mph100%29.95 "Hg6 mi
4:25 AM55 °FFog.6 mph100%29.95 "Hg4 mi
3:59 AM55 °FFog.7 mph100%29.95 "Hg4 mi
3:25 AM55 °FFog.9 mph94%29.95 "Hg5 mi
3:02 AM55 °FRain. Passing clouds.9 mph94%29.95 "Hg4 mi
2:55 AM55 °FMostly cloudy.9 mph94%29.95 "HgN/A
2:25 AM54 °FLow clouds.8 mph100%29.95 "HgN/A
1:55 AM54 °FPassing clouds.9 mph100%29.95 "HgN/A
1:25 AM55 °FLight rain. Partly cloudy.12 mph94%29.95 "HgN/A
12:55 AM55 °FRain showers. Partly cloudy.12 mph94%29.95 "HgN/A
12:25 AM54 °FSprinkles. Partly cloudy.16 mph100%29.92 "Hg5 mi
11:55 PM
Fri, Sep 4
54 °FRain showers. Partly cloudy.15 mph100%29.92 "Hg5 mi
11:25 PM55 °FSprinkles. Passing clouds.16 mph94%29.92 "HgN/A
10:55 PM55 °FPartly cloudy.14 mph94%29.92 "Hg4 mi
10:25 PM55 °FPartly cloudy.14 mph94%29.95 "HgN/A
9:57 PM55 °FPartly cloudy.14 mph94%29.95 "HgN/A
9:55 PM55 °FPartly cloudy.14 mph94%29.95 "HgN/A
9:25 PM55 °FPartly cloudy.14 mph94%29.92 "Hg6 mi
8:55 PM55 °FDrizzle. Broken clouds.15 mph94%29.92 "HgN/A
8:25 PM55 °FDrizzle. Broken clouds.14 mph88%29.92 "HgN/A
7:59 PM55 °FDrizzle. Broken clouds.15 mph88%29.92 "HgN/A
7:55 PM55 °FDrizzle. Mostly cloudy.16 mph88%29.92 "HgN/A
7:25 PM57 °FDrizzle. Mostly cloudy.14 mph82%29.92 "HgN/A
6:55 PM57 °FBroken clouds.15 mph82%29.92 "HgN/A
6:25 PM57 °FDrizzle. Partly sunny.16 mph82%29.92 "HgN/A
5:55 PM59 °FBroken clouds.17 mph72%29.92 "HgN/A
5:25 PM61 °FOvercast.14 mph72%29.92 "HgN/A
4:55 PM61 °FOvercast.13 mph72%29.92 "HgN/A
4:25 PM61 °FBroken clouds.13 mph77%29.92 "HgN/A
3:55 PM57 °FBroken clouds.14 mph82%29.95 "HgN/A
3:25 PM61 °FBroken clouds.18 mph68%29.95 "HgN/A
2:55 PM63 °FPartly sunny.15 mph68%29.95 "HgN/A
2:25 PM59 °FLight rain. Broken clouds.17 mph77%29.95 "HgN/A
1:59 PM61 °FBroken clouds.17 mph68%29.95 "HgN/A
1:55 PM61 °FBroken clouds.17 mph72%29.95 "HgN/A
1:25 PM59 °FBroken clouds.14 mph72%29.95 "HgN/A
1:01 PM61 °FLight rain. Broken clouds.16 mph72%29.95 "HgN/A
12:55 PM61 °FBroken clouds.17 mph72%29.95 "HgN/A
12:25 PM61 °FPartly sunny.13 mph72%29.95 "HgN/A
11:57 AM59 °FPartly sunny.15 mph77%29.95 "HgN/A
11:25 AM57 °FBroken clouds.14 mph82%29.95 "HgN/A
10:57 AM57 °FMore clouds than sun.14 mph82%29.95 "HgN/A
10:55 AM57 °FCloudy.14 mph82%29.95 "HgN/A
10:25 AM55 °FDrizzle. Mostly cloudy.13 mph88%29.95 "HgN/A
9:55 AM57 °FOvercast.13 mph82%29.95 "HgN/A
9:25 AM55 °FMore clouds than sun.12 mph82%29.95 "HgN/A
8:55 AM54 °FOvercast.12 mph88%29.95 "HgN/A
8:25 AM54 °FMostly cloudy.13 mph88%29.92 "HgN/A
7:55 AM50 °FPassing clouds.9 mph94%29.92 "HgN/A
7:25 AM50 °FPassing clouds.8 mph94%29.92 "HgN/A
6:55 AM52 °FOvercast.9 mph94%29.92 "HgN/A
6:25 AM50 °FOvercast.7 mph94%29.92 "HgN/A
Weather by CustomWeather, © 2015

See weather overviewHow to use our weather pages